[[{"header":{"parameterUnit":"m.s-1","parameterCategory":1,"la1":30.2991,"la2":30.254,"lo1":-89.0895,"lo2":-89.0444,"dy":0.0017,"dx":0.0017,"nx":28,"ny":28,"refTime":"2025-06-20T03:00:00:Z","depth":0,"parameterNumber":2,"parameterNumberName":"U-component_of_WINDS"},"data":[0,0,0,0,0,0,0,0,0,0,0,0,0,0,0,0,0,0,0,0,0,0,0,0,0,0,0,0,0,0,0,0,0,0,0,0,0,0,0,0,0,0,0,0,0,0,0,0,0,0,0,0,0,0,0,0,0,0,3.3196,3.3198,0,3.3338,3.3339,3.3341,3.33,3.3297,3.3294,3.3291,3.3437,3.3443,3.345,0,0,0,0,0,0,0,0,0,0,0,0,0,3.2892,3.2897,3.3196,3.3198,3.32,3.3337,3.3339,3.3341,3.33,3.3297,3.3293,3.329,3.3435,3.3443,3.345,0,0,0,0,0,0,0,0,0,0,0,0,0,3.3027,3.2899,3.3196,3.3196,3.3197,3.3337,3.3339,3.3342,3.3301,3.3297,3.3292,3.3288,3.3432,3.3442,3.3452,3.36,0,0,3.3482,3.3486,0,0,0,0,0,0,0,0,3.302,3.3039,3.3194,3.3196,3.3198,3.3296,3.3285,3.3428,3.3302,3.3262,3.3291,3.3286,3.3394,3.3407,3.3443,3.3607,3.3613,3.3483,3.3489,3.3493,3.3496,0,0,0,0,0,0,0,3.301,3.3032,3.3252,3.3196,3.3199,3.3189,3.3203,3.3312,3.3351,3.3265,3.3262,3.3279,3.3394,3.3433,3.3446,3.3615,3.3482,3.3491,3.3497,3.3501,3.3906,3.3911,0,0,0,0,0,0,3.3,3.3025,3.3248,3.3256,3.3096,3.3198,3.3214,3.3269,3.3349,3.3357,3.3283,3.3277,3.3418,3.3434,3.3451,3.3628,3.3493,3.3502,3.3508,3.3902,3.3908,3.3913,0,0,0,0,0,0,3.2993,3.302,3.3242,3.314,3.3167,3.3208,3.327,3.3274,3.3313,3.3363,3.337,3.3316,3.3416,3.3437,3.3563,3.3633,3.3507,3.3516,3.3896,3.3903,3.391,3.3985,0,0,0,0,0,0,3.2985,3.3018,3.3075,3.3142,3.3173,3.3352,3.3275,3.328,3.3331,3.3324,3.3396,3.3403,3.3414,3.3548,3.3573,3.3644,3.3523,3.389,3.3899,3.3908,3.3977,3.3994,3.4009,0,0,0,0,0,3.2974,3.3091,3.3078,3.3105,3.3245,3.3356,3.3374,3.3383,3.3336,3.3394,3.3425,3.3401,3.3621,3.3561,3.3589,3.3664,3.3885,3.3897,3.3907,3.3969,3.3991,3.4009,0,0,0,0,0,0,3.3032,3.31,3.3086,3.3228,3.3286,3.3349,3.3421,3.3406,3.3479,3.347,3.3479,3.3495,3.3624,3.3657,3.3589,3.3811,3.3747,3.3763,3.3784,3.3805,3.3821,3.381,3.3532,0,0,0,0,0,3.3061,3.3145,3.32,3.332,3.335,3.3381,3.343,3.3432,3.3493,3.3517,3.3558,3.3618,3.3701,3.3755,3.3834,3.3982,3.3996,3.4047,3.4063,3.4076,3.409,3.4168,3.4191,3.3948,3.3948,3.3948,0,0,3.3123,3.317,3.3223,3.3333,3.3379,3.3465,3.3402,3.3497,3.3561,3.3532,3.3652,3.3685,3.3752,3.3889,3.3951,3.3921,3.416,3.409,3.41,3.4107,3.4182,3.4205,3.4225,3.3956,3.3954,3.3953,0,0,3.3278,3.3324,3.3427,3.3474,3.3543,3.3563,3.3588,3.3653,3.3672,3.3793,3.3773,3.385,3.3992,3.4041,3.4084,3.4257,3.4237,3.4283,3.4367,3.4443,3.4462,3.4479,3.4539,3.4561,3.4297,3.4297,3.4297,0,3.3346,3.3475,3.3483,3.3579,3.3628,3.3605,3.3709,3.3755,3.3847,3.388,3.3845,3.4022,3.4066,3.4213,3.4255,3.4292,3.4319,3.4274,3.4459,3.4476,3.4492,3.4549,3.4572,3.4302,3.4302,3.4301,3.4301,0,3.3554,3.3644,3.372,3.3808,3.3865,3.3966,3.3988,3.4045,3.4042,3.4065,3.4188,3.424,3.4328,3.4364,3.4363,3.451,3.4489,3.4456,3.4391,3.452,3.4574,3.4596,3.4309,3.4307,3.4306,3.4305,0,0,3.375,3.384,3.3868,3.3906,3.3981,3.4051,3.4149,3.4235,3.4283,3.4347,3.4429,3.455,3.452,3.4569,3.4573,3.464,3.4771,3.4599,3.4601,3.4628,3.4935,3.4958,3.4983,3.4759,3.4763,3.4767,3.4929,0,3.3911,3.4083,3.4093,3.425,3.4332,3.4311,3.4397,3.4452,3.4476,3.4549,3.4576,3.4661,3.4616,3.4645,3.4711,3.4742,3.4833,3.473,3.4835,3.4838,3.4816,3.5011,3.5036,3.5186,3.495,3.4954,3.4956,0,3.4121,3.419,3.4355,3.4416,3.445,3.4527,3.4605,3.4676,3.4738,3.4751,3.4805,3.4799,3.49,3.4832,3.497,3.49,3.4944,3.4965,3.4971,3.498,3.4904,3.5023,3.5234,3.5256,3.499,3.4987,3.4985,0,3.4244,3.4379,3.4494,3.4529,3.4603,3.4657,3.4691,3.4748,3.4798,3.4867,3.4899,3.498,3.5023,3.5085,3.51,3.505,3.5238,3.5172,3.525,3.5249,3.5289,3.5286,3.5508,3.5321,3.532,3.532,3.5319,0,3.4421,3.4523,3.4551,3.4621,3.4734,3.4744,3.4855,3.4885,3.4935,3.5011,3.4999,3.5071,3.5088,3.5163,3.5176,3.5287,3.5307,3.5319,3.5321,3.532,3.5318,3.5347,3.5336,3.5326,3.5324,3.5323,3.5322,0,3.4578,3.4601,3.4725,3.4785,3.4803,3.4882,3.4934,3.5001,3.5024,3.512,3.5143,3.5179,3.5266,3.5288,3.5393,3.5401,3.5532,3.5525,3.551,3.5509,3.5585,3.5577,3.5832,3.5865,3.5658,3.566,3.5662,0,3.4688,3.4765,3.4833,3.4883,3.4919,3.4999,3.505,3.5063,3.5116,3.5191,3.5249,3.5335,3.5404,3.5544,3.5579,3.5659,3.5652,3.5736,3.5664,3.5659,3.5651,3.5645,3.5652,3.5749,3.5751,3.5753,3.5755,0,3.4881,3.4888,3.4962,3.5039,3.51,3.5162,3.5221,3.5262,3.5283,3.5343,3.5432,3.5485,3.5591,3.5676,3.5756,3.579,3.5776,3.5777,3.5799,3.5797,3.5784,3.579,3.5545,3.5771,3.5769,3.5768,3.5767,3.5767,3.5017,3.5083,3.5141,3.5223,3.5268,3.5323,3.5389,3.5419,3.5493,3.5579,3.5583,3.5679,3.5737,3.5842,3.5882,3.5956,3.5931,3.5963,3.5971,3.5978,3.5983,3.5774,3.5971,3.5971,3.5971,3.597,3.597,0,3.5207,3.5243,3.5318,3.54,3.5464,3.5445,3.5509,3.5563,3.5648,3.5703,3.5771,3.5872,3.5953,3.5994,3.6075,3.6127,3.6123,3.6148,3.6143,3.6151,3.6003,3.5975,3.615,3.615,3.615,3.615,3.615,3.615,3.5313,3.5424,3.5438,3.5571,3.5607,3.57,3.5737,3.5788,3.5832,3.5945,3.6012,3.6038,3.6087,3.6172,3.6245,3.6255,3.6285,3.6313,3.6319,3.618,3.6162,3.6144,3.6117,3.632,3.632,3.6461,3.6462,3.6463]},{"header":{"parameterUnit":"m.s-1","parameterCategory":1,"la1":30.2991,"la2":30.254,"lo1":-89.0895,"lo2":-89.0444,"dy":0.0017,"dx":0.0017,"nx":28,"ny":28,"refTime":"2025-06-20T03:00:00:Z","depth":0,"parameterNumber":3,"parameterNumberName":"V-component_of_WINDS"},"data":[0,0,0,0,0,0,0,0,0,0,0,0,0,0,0,0,0,0,0,0,0,0,0,0,0,0,0,0,0,0,0,0,0,0,0,0,0,0,0,0,0,0,0,0,0,0,0,0,0,0,0,0,0,0,0,0,0,0,0.5167,0.5167,0,0.5159,0.5159,0.5159,0.5119,0.5118,0.5117,0.5116,0.5109,0.511,0.511,0,0,0,0,0,0,0,0,0,0,0,0,0,0.5147,0.5147,0.5167,0.5167,0.5167,0.5159,0.5159,0.5159,0.5119,0.5118,0.5116,0.5115,0.5109,0.511,0.5111,0,0,0,0,0,0,0,0,0,0,0,0,0,0.5149,0.5148,0.5167,0.5146,0.5144,0.5159,0.5159,0.5159,0.5119,0.5118,0.5116,0.5115,0.5109,0.511,0.5111,0.5146,0,0,0.5114,0.5114,0,0,0,0,0,0,0,0,0.5149,0.515,0.5149,0.5147,0.5145,0.5138,0.5149,0.5155,0.5119,0.5129,0.5116,0.5114,0.512,0.512,0.5122,0.5146,0.5146,0.5114,0.5115,0.5115,0.5115,0,0,0,0,0,0,0,0.5149,0.515,0.5164,0.5149,0.5147,0.5137,0.5135,0.515,0.5133,0.5128,0.5125,0.5124,0.5119,0.5121,0.5121,0.5146,0.5114,0.5115,0.5116,0.5116,0.5197,0.5198,0,0,0,0,0,0,0.5152,0.515,0.5164,0.5164,0.5143,0.5138,0.5137,0.5142,0.5132,0.5129,0.5125,0.5122,0.512,0.512,0.5121,0.5161,0.5115,0.5116,0.5117,0.5195,0.5197,0.5199,0,0,0,0,0,0,0.5151,0.5153,0.5165,0.5156,0.5157,0.514,0.5146,0.5143,0.5145,0.5131,0.5127,0.5131,0.5119,0.512,0.514,0.5161,0.5117,0.5118,0.5193,0.5196,0.5198,0.5243,0,0,0,0,0,0,0.5151,0.5153,0.5167,0.5157,0.5157,0.5184,0.5148,0.5144,0.5147,0.5143,0.5135,0.5132,0.5118,0.5138,0.5141,0.5161,0.5118,0.5192,0.5194,0.5197,0.5239,0.5246,0.5252,0,0,0,0,0,0.515,0.5181,0.5168,0.517,0.5174,0.5185,0.5186,0.5168,0.5149,0.5162,0.5152,0.5133,0.5158,0.5141,0.5143,0.5164,0.519,0.5194,0.5197,0.5237,0.5245,0.5252,0,0,0,0,0,0,0.5195,0.5179,0.5165,0.5193,0.519,0.5178,0.5195,0.5177,0.5181,0.5177,0.5155,0.5153,0.5177,0.5172,0.5154,0.5197,0.517,0.5174,0.52,0.5208,0.5214,0.5215,0.5119,0,0,0,0,0,0.5208,0.5218,0.5204,0.523,0.5229,0.5212,0.5217,0.5203,0.52,0.5199,0.5191,0.5189,0.5196,0.5201,0.5207,0.5238,0.5235,0.5253,0.526,0.5265,0.5269,0.5284,0.5291,0.521,0.521,0.521,0,0,0.5235,0.5228,0.5236,0.5238,0.5235,0.5246,0.5212,0.5225,0.5233,0.5201,0.5219,0.5213,0.5209,0.5235,0.5246,0.5232,0.5291,0.5269,0.5274,0.5275,0.5288,0.5296,0.5303,0.5212,0.5212,0.5211,0,0,0.5291,0.5286,0.5307,0.5303,0.5298,0.5286,0.5291,0.5281,0.5276,0.5294,0.5269,0.5278,0.5291,0.5289,0.529,0.5341,0.5323,0.5344,0.5378,0.5392,0.5399,0.5404,0.5422,0.5429,0.5348,0.5348,0.5348,0,0.5326,0.5341,0.532,0.5334,0.5336,0.5305,0.5326,0.5324,0.5321,0.5323,0.5307,0.5322,0.5317,0.5341,0.5353,0.5355,0.5359,0.5345,0.5399,0.5405,0.541,0.5427,0.5433,0.535,0.535,0.535,0.5349,0,0.5384,0.5394,0.5412,0.5409,0.5412,0.5429,0.541,0.5416,0.5401,0.5391,0.5409,0.5402,0.5405,0.5409,0.5396,0.5431,0.5422,0.5403,0.5376,0.542,0.5436,0.5442,0.5354,0.5353,0.5352,0.5352,0,0,0.5469,0.5452,0.5459,0.5457,0.5447,0.5455,0.5471,0.5473,0.5478,0.5477,0.5489,0.5499,0.5481,0.5482,0.5467,0.548,0.552,0.5459,0.5458,0.5471,0.5558,0.5572,0.558,0.5507,0.5509,0.5509,0.5558,0,0.5522,0.5547,0.5527,0.5556,0.5565,0.5535,0.5549,0.5544,0.5534,0.554,0.5529,0.5537,0.5513,0.5513,0.5524,0.5513,0.5538,0.5509,0.5518,0.5519,0.5521,0.5589,0.5605,0.5651,0.5564,0.5565,0.5566,0,0.5587,0.5587,0.5617,0.5604,0.5607,0.562,0.5619,0.5625,0.5619,0.5611,0.5611,0.5592,0.5605,0.5578,0.5595,0.5577,0.5579,0.5574,0.5575,0.5576,0.5546,0.5591,0.5665,0.5672,0.5575,0.5574,0.5574,0,0.5646,0.5654,0.5672,0.5671,0.5657,0.5666,0.566,0.5653,0.5655,0.5654,0.5655,0.5657,0.5658,0.5659,0.564,0.5622,0.566,0.5631,0.5654,0.5654,0.5664,0.5664,0.574,0.5665,0.5665,0.5665,0.5665,0,0.5708,0.5727,0.5698,0.571,0.5729,0.5706,0.5726,0.5718,0.5711,0.572,0.5694,0.5703,0.5678,0.5683,0.5669,0.5686,0.5686,0.568,0.5676,0.5682,0.5683,0.5684,0.5681,0.5667,0.5666,0.5666,0.5666,0,0.5778,0.5759,0.5777,0.5761,0.5757,0.5773,0.5759,0.5769,0.5756,0.5768,0.5769,0.5749,0.5755,0.5736,0.5739,0.5729,0.5753,0.5744,0.5755,0.5753,0.5776,0.5774,0.5856,0.5865,0.5784,0.5785,0.5785,0,0.5818,0.5832,0.5817,0.5821,0.5816,0.5823,0.5824,0.5801,0.5803,0.5796,0.5806,0.5809,0.5811,0.5821,0.5807,0.5808,0.5799,0.5827,0.5799,0.5804,0.5799,0.5798,0.5799,0.5833,0.5834,0.5835,0.5836,0,0.5892,0.5882,0.5885,0.5884,0.5886,0.5885,0.5882,0.5886,0.5861,0.5865,0.587,0.5871,0.5872,0.5875,0.5873,0.5867,0.5847,0.5844,0.5849,0.5857,0.5863,0.5859,0.5772,0.5843,0.5842,0.5842,0.5841,0.5841,0.5949,0.5959,0.595,0.5953,0.5948,0.5945,0.5953,0.594,0.5944,0.5943,0.5929,0.5936,0.5928,0.5923,0.5918,0.5923,0.591,0.5918,0.592,0.5922,0.5926,0.5861,0.5923,0.5923,0.5923,0.5922,0.5922,0,0.6021,0.6013,0.6017,0.6012,0.6015,0.5994,0.5989,0.5993,0.5999,0.5993,0.5994,0.5999,0.6001,0.5986,0.5987,0.5993,0.5984,0.5994,0.5994,0.5993,0.5938,0.5934,0.6002,0.6002,0.6002,0.6002,0.6002,0.6002,0.6059,0.6075,0.6063,0.6076,0.6068,0.6074,0.6073,0.607,0.6064,0.607,0.6072,0.6062,0.6052,0.6051,0.6052,0.6047,0.6048,0.6062,0.6054,0.6004,0.5997,0.5989,0.5985,0.6062,0.6062,0.6108,0.6108,0.6109]}]]